DateTimeUTC,F1_A11,F1_S11,BsB_S11,BsG_S11,BsR_S11,BbsB_S11,BbsG_S11,BbsR_S11,BaB_A11,BaG_A11,BaR_A11,T_S11,U_S11,P_S11,T1_A11
2020-09-22T00:00:00Z,00000388,21000608,,,,,,,,,,22.6,00.0,0654.2,30.9
2020-09-22T00:01:00Z,00000388,21000608,,,,,,,,,,22.6,00.0,0654.2,30.9
2020-09-22T00:02:00Z,00000388,21000608,,,,,,,,,,22.6,00.0,0654.2,30.9
2020-09-22T00:03:00Z,00000388,61000608,,,,,,,,,,22.7,00.0,0654.2,30.9
2020-09-22T00:04:00Z,00000388,41000608,0000.72,0000.77,-000.01,-000.14,-000.18,0000.10,0000.27,0000.19,0000.33,22.5,00.0,0655.0,30.9
2020-09-22T00:05:00Z,00000388,01000608,0001.18,0001.17,0000.80,0000.53,0000.20,0000.10,0000.10,0000.22,0000.11,22.5,00.0,0655.1,30.9
2020-09-22T00:06:00Z,00000388,01000608,0000.20,0000.35,0000.58,0000.55,0000.11,-000.03,0000.45,0000.15,0000.14,22.5,00.0,0655.1,30.9
2020-09-22T00:07:00Z,00000388,01000608,0001.36,0000.68,0000.11,0000.03,0000.23,0000.26,0000.09,0000.25,0000.18,22.5,00.0,0655.1,30.9
2020-09-22T00:08:00Z,00000388,01000608,0000.11,0000.51,0000.51,0000.06,-000.03,0000.23,0000.16,0000.07,0000.03,22.4,00.0,0655.1,30.9
2020-09-22T00:09:00Z,00000388,01000608,0001.69,0000.72,0000.94,0000.35,-000.10,-000.14,0000.24,0000.15,0000.20,22.5,00.0,0655.1,30.9
2020-09-22T00:10:00Z,00000388,01000608,0001.65,0001.41,0000.62,0000.11,0000.33,0000.30,0000.15,0000.28,0000.10,22.4,00.0,0655.1,30.9
2020-09-22T00:11:00Z,00000388,01000608,0001.60,0000.72,0000.84,0000.15,-000.04,0000.26,0000.27,0000.16,0000.24,22.5,00.0,0655.1,30.9
2020-09-22T00:12:00Z,00000388,01000608,0000.73,0001.00,0000.23,0000.29,-000.02,-000.17,0000.12,0000.16,0000.13,22.5,00.0,0655.1,30.9
2020-09-22T00:13:00Z,00000388,01000608,0000.97,0001.07,0000.61,0000.08,0000.04,0000.28,0000.18,0000.23,0000.12,22.5,00.0,0655.1,30.9
2020-09-22T00:14:00Z,00000388,01000608,0000.18,0001.03,0000.82,-000.07,0000.10,0000.46,0000.31,0000.27,0000.20,22.5,00.0,0655.1,30.9
2020-09-22T00:15:00Z,00000388,01000608,0000.52,0001.11,0000.77,0001.09,0000.01,0000.27,0000.19,0000.03,0000.09,22.5,00.0,0655.0,30.9
2020-09-22T00:16:00Z,00000388,01000608,0000.67,0000.38,0000.83,0000.42,-000.02,0000.09,0000.13,0000.24,0000.11,22.5,00.0,0655.1,30.9
2020-09-22T00:17:00Z,00000388,01000608,0000.65,0000.98,0000.81,0000.21,0000.28,0000.67,0000.19,0000.28,0000.25,22.5,00.0,0655.1,30.9
2020-09-22T00:18:00Z,00000388,01000608,0001.52,0001.52,0000.40,0000.29,-000.14,0000.47,0000.12,0000.03,0000.11,22.5,00.0,0655.1,30.9
2020-09-22T00:19:00Z,00000388,01000608,0001.18,0001.61,0000.55,0000.57,-000.34,0000.24,0000.14,0000.09,-000.14,22.4,00.0,0655.1,30.9
2020-09-22T00:20:00Z,00000388,01000608,0000.73,0001.18,0001.12,0000.10,-000.04,0000.36,0000.29,0000.27,0000.38,22.4,00.0,0655.1,30.8
2020-09-22T00:21:00Z,00000388,01000608,0001.25,0000.86,0000.47,0001.02,-000.07,0000.06,0000.22,0000.24,0000.10,22.3,00.0,0655.1,30.8
2020-09-22T00:22:00Z,00000388,01000608,0001.36,0001.36,0000.85,0000.48,0000.28,-000.09,0000.32,0000.15,0000.16,22.3,00.0,0655.1,30.8
2020-09-22T00:23:00Z,00000388,01000608,0002.40,0001.17,0000.52,0000.10,0000.21,0000.10,0000.15,0000.14,0000.03,22.3,00.0,0655.1,30.8
2020-09-22T00:24:00Z,00000388,01000608,0000.47,0001.38,0000.69,-000.15,0000.17,0000.31,0000.18,0000.19,0000.19,22.3,00.0,0655.1,30.8
2020-09-22T00:25:00Z,00000388,01000608,0000.59,0001.02,0000.58,0000.40,0000.15,0000.15,0000.22,0000.12,0000.18,22.3,00.0,0655.1,30.8
2020-09-22T00:26:00Z,00000388,01000608,0001.57,0000.98,0000.33,0000.76,0000.32,0000.30,0000.13,0000.15,0000.15,22.3,00.0,0655.1,30.8
2020-09-22T00:27:00Z,00000388,01000608,-000.04,0000.72,0000.71,-000.07,0000.77,0000.26,0000.12,0000.11,-000.08,22.3,00.0,0655.1,30.8
2020-09-22T00:28:00Z,00000388,01000608,0000.98,0000.95,0000.64,0000.30,-000.01,0000.08,0000.12,0000.24,0000.19,22.4,00.0,0655.2,30.9
2020-09-22T00:29:00Z,00000388,01000608,-000.05,0001.19,0000.71,0000.44,-000.06,0000.08,0000.15,0000.07,0000.16,22.4,00.0,0655.2,30.9
2020-09-22T00:30:00Z,00000388,01000608,0001.45,0001.28,0000.56,-000.27,-000.05,0000.17,0000.14,0000.04,0000.04,22.4,00.0,0655.2,30.9
2020-09-22T00:31:00Z,00000388,01000608,0001.45,0001.27,0000.57,0000.03,-000.23,-000.11,0000.19,0000.26,0000.14,22.4,00.0,0655.1,30.9
2020-09-22T00:32:00Z,00000388,01000608,0000.30,0000.84,0000.86,0000.79,0000.28,0000.82,0000.21,0000.24,0000.09,22.4,00.0,0655.2,30.9
2020-09-22T00:33:00Z,00000388,01000608,0000.71,0001.74,0000.72,0000.28,-000.02,0000.23,0000.05,0000.08,0000.18,22.5,00.0,0655.2,30.9
2020-09-22T00:34:00Z,00000388,01000608,0000.13,0000.81,0000.95,0000.27,-000.17,-000.07,0000.29,0000.20,0000.06,22.4,00.0,0655.2,30.9
2020-09-22T00:35:00Z,00000388,01000608,0001.79,0000.83,0000.26,-000.27,0000.23,0000.02,0000.37,0000.23,0000.17,22.4,00.0,0655.1,30.9
2020-09-22T00:36:00Z,00000388,01000608,-000.22,0001.71,0000.59,0000.31,0000.04,0000.06,0000.13,0000.25,0000.20,22.4,00.0,0655.1,30.9
2020-09-22T00:37:00Z,00000388,01000608,0001.13,0001.17,0000.66,0000.95,-000.09,0000.11,0000.11,0000.08,0000.15,22.4,00.0,0655.1,30.8
2020-09-22T00:38:00Z,00000388,01000608,0001.51,0000.72,0000.96,0000.44,0000.17,-000.04,0000.30,0000.20,0000.07,22.4,00.0,0655.2,30.8
2020-09-22T00:39:00Z,00000388,01000608,0001.36,0000.96,0000.67,0000.52,0000.42,0000.09,0000.24,0000.15,0000.24,22.3,00.0,0655.2,30.8
2020-09-22T00:40:00Z,00000388,01000608,0000.43,0000.86,0000.39,0001.62,-000.13,-000.21,0000.27,0000.46,0000.17,22.4,00.0,0655.2,30.8
2020-09-22T00:41:00Z,00000388,01000608,0002.15,0001.19,0000.55,0000.60,0000.38,0000.29,0000.44,0000.13,0000.32,22.4,00.0,0655.1,30.8
2020-09-22T00:42:00Z,00000388,01000608,0001.56,0001.71,0001.28,0001.57,0000.38,0000.12,0002.85,0002.59,0001.98,22.4,00.0,0655.1,30.9
2020-09-22T00:43:00Z,00000388,01000608,0002.59,0002.37,0001.26,0000.08,-000.22,0000.37,0004.79,0004.66,0003.67,22.4,00.0,0655.1,30.9
2020-09-22T00:44:00Z,00000388,01000608,0002.64,0003.25,0002.23,0000.97,0000.64,0000.59,0007.14,0006.42,0005.11,22.4,00.0,0655.1,30.9
2020-09-22T00:45:00Z,00000388,01000608,0004.79,0003.62,0002.48,0000.72,0000.38,0000.37,0010.55,0009.78,0007.79,22.5,00.0,0655.1,30.9
2020-09-22T00:46:00Z,00000388,01000608,0005.26,0003.40,0002.68,0000.91,0000.63,0000.67,0009.54,0008.85,0007.05,22.5,00.0,0655.1,30.9
2020-09-22T00:47:00Z,00000388,01000608,0003.52,0003.26,0001.92,0001.46,0000.36,0000.51,0007.31,0006.88,0005.37,22.4,00.0,0655.1,30.9
2020-09-22T00:48:00Z,00000388,01000608,0004.99,0003.98,0002.62,0000.34,0001.16,0000.44,0010.70,0009.67,0007.74,22.4,00.0,0655.1,30.9
2020-09-22T00:49:00Z,00000388,01000608,0008.93,0006.56,0004.21,0001.66,0001.29,0000.94,0019.92,0018.32,0014.36,22.4,00.0,0655.1,30.8
2020-09-22T00:50:00Z,00000388,01000608,0014.37,0010.64,0006.39,0003.33,0002.28,0001.69,0035.05,0032.50,0025.80,22.3,00.0,0655.1,30.8
2020-09-22T00:51:00Z,00000388,01000608,0011.53,0009.30,0006.19,0002.69,0001.47,0001.12,0029.44,0027.12,0021.47,22.3,00.0,0655.1,30.8
2020-09-22T00:52:00Z,00000388,01000608,0007.52,0005.40,0003.86,0001.74,0000.91,0000.75,0020.29,0018.69,0014.95,22.3,00.0,0655.1,30.8
2020-09-22T00:53:00Z,00000388,01000608,0002.14,0001.01,0001.25,0000.69,0000.22,0000.51,0002.15,0002.04,0001.67,22.3,00.0,0655.1,30.8
2020-09-22T00:54:00Z,00000388,01000608,0000.34,0001.28,0000.68,0000.38,0000.47,0000.20,0000.52,0000.54,0000.54,22.2,00.0,0655.2,30.8
2020-09-22T00:55:00Z,00000388,01000608,0001.78,0001.10,0000.37,0000.08,0000.28,-000.12,0000.40,0000.20,0000.15,22.3,00.0,0655.1,30.8
2020-09-22T00:56:00Z,00000388,01000608,0001.50,0001.63,0000.79,0000.77,0000.17,0000.20,0000.57,0000.52,0000.42,22.3,00.0,0655.2,30.8
2020-09-22T00:57:00Z,00000388,41000608,,,,,,,,,,22.3,00.0,0655.3,30.8
2020-09-22T00:58:00Z,00000388,61000608,,,,,,,,,,22.4,00.0,0654.3,30.9
2020-09-22T00:59:00Z,00000388,21000608,,,,,,,,,,22.5,00.0,0654.2,30.9
2020-09-22T01:00:00Z,00000388,21000608,,,,,,,,,,22.6,00.0,0654.2,30.9
2020-09-22T01:01:00Z,00000388,21000608,,,,,,,,,,22.6,00.0,0654.2,30.9
2020-09-22T01:02:00Z,00000388,21000608,,,,,,,,,,22.6,00.0,0654.2,30.9
2020-09-22T01:03:00Z,00000388,61000608,,,,,,,,,,22.6,00.0,0654.2,30.9
2020-09-22T01:04:00Z,00000388,41000608,0001.22,0000.77,0000.41,0000.01,0000.21,0000.34,-000.04,0000.22,0000.17,22.5,00.0,0655.1,30.9
2020-09-22T01:05:00Z,00000388,01000608,0002.26,0000.77,0000.54,0000.19,0000.09,0000.36,0000.22,0000.06,-000.05,22.4,00.0,0655.1,30.9
2020-09-22T01:06:00Z,00000388,01000608,0000.92,0001.15,0000.51,-000.34,0000.07,0000.03,0000.09,0000.03,0000.07,22.4,00.0,0655.2,30.9
2020-09-22T01:07:00Z,00000388,01000608,0002.06,0000.90,0000.25,-000.11,0000.41,-000.40,0000.17,0000.18,0000.16,22.4,00.0,0655.1,30.8
2020-09-22T01:08:00Z,00000388,01000608,0001.57,0001.03,0000.54,0000.47,0000.20,0000.35,0000.12,0000.02,0000.12,22.3,00.0,0655.1,30.8
2020-09-22T01:09:00Z,00000388,01000608,0000.73,0001.00,0000.34,-000.19,0000.26,0000.43,0000.13,0000.27,-000.00,22.3,00.0,0655.1,30.8
2020-09-22T01:10:00Z,00000388,01000608,0003.31,0000.94,0000.75,0000.15,-000.26,0000.20,0000.17,0000.06,0000.26,22.3,00.0,0655.1,30.9
2020-09-22T01:11:00Z,00000388,01000608,0001.89,0000.98,0000.57,0000.59,-000.23,0000.28,0000.12,0000.15,0000.14,22.4,00.0,0655.1,30.9
2020-09-22T01:12:00Z,00000388,01000608,0002.07,0000.50,0000.77,-000.34,0000.24,0000.29,0000.15,0000.07,-000.01,22.4,00.0,0655.1,30.9
2020-09-22T01:13:00Z,00000388,01000608,0001.87,0000.60,0000.81,-000.34,0000.18,-000.18,0000.09,0000.02,0000.25,22.4,00.0,0655.2,30.9
2020-09-22T01:14:00Z,00000388,01000608,0001.53,0000.69,0000.51,-000.02,0000.11,0000.14,0000.15,0000.34,-000.00,22.4,00.0,0655.2,30.9
2020-09-22T01:15:00Z,00000388,01000608,0001.94,0001.09,0000.85,-000.29,0000.17,-000.09,0000.07,-000.02,0000.04,22.4,00.0,0655.2,30.9
2020-09-22T01:16:00Z,00000388,01000608,0000.10,0001.27,0000.61,0000.46,0000.13,-000.23,0000.12,0000.18,0000.04,22.4,00.0,0655.2,30.9
2020-09-22T01:17:00Z,00000388,01000608,0001.41,0000.87,0000.47,0000.68,0000.28,-000.08,0000.18,0000.04,0000.24,22.4,00.0,0655.2,30.9
2020-09-22T01:18:00Z,00000388,01000608,0001.33,0000.91,0000.65,0000.10,0000.21,-000.06,0000.10,0000.27,0000.01,22.4,00.0,0655.2,30.9
2020-09-22T01:19:00Z,00000388,01000608,0000.33,0000.81,0000.01,0000.44,0000.08,0000.25,0000.12,0000.04,0000.06,22.4,00.0,0655.2,30.9
2020-09-22T01:20:00Z,00000388,01000608,0001.07,0001.70,0000.47,-000.39,0000.14,0000.51,-000.13,-000.05,-000.08,22.4,00.0,0655.1,30.9
2020-09-22T01:21:00Z,00000388,01000608,0001.83,0000.88,0000.08,0000.34,-000.10,0000.27,0000.18,0000.10,0000.15,22.4,00.0,0655.2,30.9
2020-09-22T01:22:00Z,00000388,01000608,0001.43,0000.75,0000.59,0000.69,0000.51,0000.27,0000.18,0000.06,0000.09,22.3,00.0,0655.1,30.9
2020-09-22T01:23:00Z,00000388,01000608,0001.61,0001.17,0000.41,0000.82,0000.07,-000.07,0000.08,0000.08,0000.11,22.3,00.0,0655.2,30.8
2020-09-22T01:24:00Z,00000388,01000608,0001.58,0000.57,0000.66,0000.60,0000.05,0000.05,0000.28,0000.04,-000.02,22.3,00.0,0655.2,30.8
2020-09-22T01:25:00Z,00000388,01000608,0000.42,0001.05,0000.46,0000.72,0000.47,0000.31,-000.14,0000.09,0000.01,22.3,00.0,0655.2,30.8
2020-09-22T01:26:00Z,00000388,01000608,0001.37,0000.96,0000.71,-000.27,0000.07,0000.23,0000.18,0000.15,0000.21,22.3,00.0,0655.2,30.8
2020-09-22T01:27:00Z,00000388,01000608,0001.76,0000.48,0000.42,-000.21,0000.12,0000.32,0000.04,0000.06,0000.05,22.3,00.0,0655.1,30.9
2020-09-22T01:28:00Z,00000388,01000608,0001.38,0001.02,0000.58,-000.15,0000.26,0000.33,0000.19,0000.22,0000.17,22.4,00.0,0655.1,30.9
2020-09-22T01:29:00Z,00000388,01000608,0001.35,0000.90,0000.80,0000.70,0000.22,-000.07,0000.12,0000.11,-000.02,22.4,00.0,0655.1,30.9
2020-09-22T01:30:00Z,00000388,01000608,0000.93,0000.85,0000.91,0000.16,0000.46,0000.23,0000.07,0000.20,0000.06,22.4,00.0,0655.1,30.9
2020-09-22T01:31:00Z,00000388,01000608,0001.04,0000.90,0000.07,-000.66,0000.26,0000.50,0000.10,0000.01,0000.09,22.4,00.0,0655.1,30.9
2020-09-22T01:32:00Z,00000388,01000608,0001.32,0000.88,0000.99,-000.21,0000.27,0000.26,0000.18,0000.08,0000.25,22.4,00.0,0655.1,30.9
2020-09-22T01:33:00Z,00000388,01000608,0001.70,0000.89,0000.45,-000.53,0000.08,-000.34,0000.03,0000.07,0000.04,22.4,00.0,0655.2,30.9
2020-09-22T01:34:00Z,00000388,01000608,0001.68,0000.73,0000.57,0000.46,0000.08,0000.09,0000.04,0000.07,-000.10,22.4,00.0,0655.1,30.9
2020-09-22T01:35:00Z,00000388,01000608,0000.76,0000.76,0000.32,-000.42,0000.23,0000.17,-000.04,0000.05,-000.00,22.4,00.0,0655.2,30.8
2020-09-22T01:36:00Z,00000388,01000608,0000.67,0000.64,0000.74,-000.30,0000.18,0000.59,0000.29,0000.12,0000.22,22.4,00.0,0655.1,30.8
2020-09-22T01:37:00Z,00000388,01000608,0000.94,0000.83,0001.12,0000.17,0000.39,0000.16,0000.07,0000.07,0000.03,22.3,00.0,0655.2,30.8
2020-09-22T01:38:00Z,00000388,01000608,0000.73,0000.71,0000.48,0000.64,0000.07,0000.03,0000.01,-000.12,0000.02,22.3,00.0,0655.1,30.8
2020-09-22T01:39:00Z,00000388,01000608,0001.78,0001.08,0000.46,0000.22,0000.24,-000.18,0000.03,0000.22,0000.07,22.3,00.0,0655.2,30.8
2020-09-22T01:40:00Z,00000388,01000608,0002.31,0001.42,0000.43,-000.23,0000.31,0000.20,0000.08,0000.02,0000.07,22.3,00.0,0655.1,30.8
2020-09-22T01:41:00Z,00000388,01000608,0001.24,0000.48,0000.42,-000.14,0000.37,-000.08,0000.17,0000.11,0000.10,22.4,00.0,0655.1,30.8
2020-09-22T01:42:00Z,00000388,01000608,0002.34,0000.78,0000.70,0000.41,0000.42,0000.41,0000.13,0000.28,0000.10,22.4,00.0,0655.2,30.8
2020-09-22T01:43:00Z,00000388,01000608,0001.51,0000.98,0000.46,0000.01,0000.06,0000.07,0000.04,-000.03,-000.10,22.4,00.0,0655.2,30.9
2020-09-22T01:44:00Z,00000388,01000608,0001.11,0000.55,0001.10,-000.53,-000.13,0000.36,0000.01,0000.21,0000.01,22.4,00.0,0655.2,30.9
2020-09-22T01:45:00Z,00000388,01000608,0001.15,0000.77,0000.90,-000.11,0000.29,0000.31,0000.09,-000.14,0000.19,22.4,00.0,0655.2,30.9
2020-09-22T01:46:00Z,00000388,01000608,0002.26,0000.26,0000.66,0000.35,0000.08,-000.00,0000.15,0000.15,0000.01,22.4,00.0,0655.2,30.9
2020-09-22T01:47:00Z,00000388,01000608,0001.42,0000.99,0000.20,-000.47,0000.07,-000.05,-000.02,0000.06,0000.10,22.4,00.0,0655.2,30.9
2020-09-22T01:48:00Z,00000388,01000608,0001.73,0000.82,0001.07,-000.31,0000.65,0000.08,0000.06,0000.05,-000.02,22.4,00.0,0655.2,30.9
2020-09-22T01:49:00Z,00000388,01000608,0001.85,0000.90,0000.59,0000.02,0000.03,0000.14,0000.14,-000.00,0000.03,22.4,00.0,0655.2,30.9
2020-09-22T01:50:00Z,00000388,01000608,0000.75,0000.61,0000.71,0000.30,0000.06,-000.24,-000.03,0000.20,0000.06,22.3,00.0,0655.2,30.9
2020-09-22T01:51:00Z,00000388,01000608,0001.08,0000.37,0000.37,-000.26,0000.25,-000.04,0000.05,0000.01,0000.11,22.3,00.0,0655.2,30.9
2020-09-22T01:52:00Z,00000388,01000608,0000.50,0000.77,0000.78,0000.79,0000.46,0000.24,0000.35,0000.24,0000.15,22.3,00.0,0655.2,30.8
2020-09-22T01:53:00Z,00000388,01000608,0000.83,0000.65,0000.47,-000.43,0000.22,0000.07,0000.25,0000.13,0000.14,22.2,00.0,0655.2,30.8
2020-09-22T01:54:00Z,00000388,01000608,0001.67,0000.65,0000.49,0000.14,0000.68,-000.28,0000.17,0000.23,0000.11,22.2,00.0,0655.2,30.8
2020-09-22T01:55:00Z,00000388,01000608,0001.12,0001.32,0000.99,0000.65,0000.15,0000.10,0000.10,0000.09,0000.25,22.3,00.0,0655.2,30.8
2020-09-22T01:56:00Z,00000388,01000608,0001.70,0001.24,0000.53,-000.09,-000.17,0000.37,0000.19,0000.06,0000.00,22.3,00.0,0655.2,30.8
2020-09-22T01:57:00Z,00000388,41000608,,,,,,,,,,22.3,00.0,0655.2,30.8
2020-09-22T01:58:00Z,00000388,61000608,,,,,,,,,,22.5,00.0,0654.3,30.9
2020-09-22T01:59:00Z,00000388,21000608,,,,,,,,,,22.6,00.0,0654.3,30.9
2020-09-22T02:00:00Z,00000388,21000608,,,,,,,,,,22.6,00.0,0654.3,30.9
2020-09-22T02:01:00Z,00000388,21000608,,,,,,,,,,22.6,00.0,0654.3,30.9
2020-09-22T02:02:00Z,00000388,21000608,,,,,,,,,,22.6,00.0,0654.3,30.9
2020-09-22T02:03:00Z,00000388,61000608,,,,,,,,,,22.6,00.0,0654.3,30.9
2020-09-22T02:04:00Z,00000388,41000608,0000.57,0000.93,0000.16,0000.45,0000.38,-000.03,0000.17,0000.02,0000.22,22.5,00.0,0655.2,30.9
2020-09-22T02:05:00Z,00000388,01000608,0000.26,0001.19,0000.33,0000.55,0000.41,-000.28,0000.15,0000.47,0000.07,22.5,00.0,0655.2,30.9
2020-09-22T02:06:00Z,00000388,01000608,0002.09,0001.20,0000.57,0000.58,0000.45,-000.07,0000.39,0000.07,0000.14,22.4,00.0,0655.2,30.9
2020-09-22T02:07:00Z,00000388,01000608,0001.66,0001.78,0000.64,0000.91,0000.27,-000.12,0000.28,0000.30,0000.34,22.4,00.0,0655.2,30.8
2020-09-22T02:08:00Z,00000388,01000608,0001.04,0000.73,0000.36,0000.85,0000.28,-000.09,0000.23,0000.14,0000.16,22.4,00.0,0655.2,30.8
2020-09-22T02:09:00Z,00000388,01000608,0001.97,0001.26,0000.33,0000.31,0000.36,0000.41,0000.14,0000.15,0000.05,22.3,00.0,0655.2,30.8
2020-09-22T02:10:00Z,00000388,01000608,0001.56,0001.06,0000.67,0000.87,0000.32,0000.28,0000.07,0000.10,0000.03,22.4,00.0,0655.2,30.8
2020-09-22T02:11:00Z,00000388,01000608,0000.53,0001.42,0000.51,0000.27,0000.22,-000.23,0000.12,0000.01,0000.02,22.4,00.0,0655.3,30.8
2020-09-22T02:12:00Z,00000388,01000608,0000.47,0001.48,0000.56,0001.22,0000.51,0000.21,0000.05,0000.11,0000.12,22.4,00.0,0655.3,30.9
2020-09-22T02:13:00Z,00000388,01000608,0001.35,0000.88,0000.36,0000.39,-000.06,-000.01,-000.02,0000.02,0000.01,22.4,00.0,0655.3,30.9
2020-09-22T02:14:00Z,00000388,01000608,0000.87,0001.07,0000.00,-000.03,0000.23,0000.18,0000.25,0000.13,0000.22,22.4,00.0,0655.3,30.9
2020-09-22T02:15:00Z,00000388,01000608,0000.05,0000.87,0000.59,0000.99,0000.47,-000.07,0000.29,0000.31,0000.24,22.4,00.0,0655.2,30.9
2020-09-22T02:16:00Z,00000388,01000608,0001.36,0001.23,0000.29,-000.14,0000.28,0000.08,0000.17,0000.30,0000.15,22.4,00.0,0655.2,30.9
2020-09-22T02:17:00Z,00000388,01000608,0000.91,0001.10,0000.63,0000.55,-000.02,-000.26,0000.49,0000.37,0000.20,22.4,00.0,0655.2,30.9
2020-09-22T02:18:00Z,00000388,01000608,0002.02,0001.06,0000.44,0000.09,0000.77,-000.26,0000.07,0000.25,0000.09,22.4,00.0,0655.2,30.8
2020-09-22T02:19:00Z,00000388,01000608,0001.18,0001.21,-000.02,-000.04,0000.48,-000.12,0000.26,0000.17,0000.27,22.3,00.0,0655.2,30.8
2020-09-22T02:20:00Z,00000388,01000608,0000.98,0001.04,0000.87,0000.85,-000.21,-000.28,0000.33,0000.06,-000.04,22.3,00.0,0655.2,30.8
2020-09-22T02:21:00Z,00000388,01000608,0001.07,0001.04,0000.27,0001.39,0000.44,0000.13,-000.13,-000.04,0000.13,22.3,00.0,0655.3,30.8
2020-09-22T02:22:00Z,00000388,01000608,0001.14,0001.08,0000.21,0000.42,0000.24,-000.54,0000.13,0000.10,-000.07,22.2,00.0,0655.2,30.8
2020-09-22T02:23:00Z,00000388,01000608,0001.16,0000.91,0000.40,-000.49,0000.29,0000.16,0000.01,0000.05,0000.13,22.2,00.0,0655.3,30.8
2020-09-22T02:24:00Z,00000388,01000608,0001.13,0000.55,0000.27,0000.77,0000.46,-000.23,0000.56,0000.45,0000.33,22.2,00.0,0655.3,30.8
2020-09-22T02:25:00Z,00000388,01000608,0002.88,0001.26,0000.94,0000.20,0000.24,-000.25,0001.73,0001.62,0001.25,22.2,00.0,0655.3,30.8
2020-09-22T02:26:00Z,00000388,01000608,0002.97,0002.47,0001.44,0001.00,0000.61,-000.09,0006.59,0006.10,0005.00,22.2,00.0,0655.3,30.8
2020-09-22T02:27:00Z,00000388,01000608,0000.68,0000.71,0000.49,0000.22,0000.13,-000.02,0000.52,0000.47,0000.36,22.3,00.0,0655.3,30.8
2020-09-22T02:28:00Z,00000388,01000608,0000.37,0001.77,0000.69,0000.71,0000.51,0000.07,0000.61,0000.55,0000.48,22.3,00.0,0655.3,30.8
2020-09-22T02:29:00Z,00000388,01000608,0000.57,0000.87,0000.85,0000.64,0000.30,-000.06,0000.41,0000.47,0000.36,22.3,00.0,0655.3,30.8
2020-09-22T02:30:00Z,00000388,01000608,0001.36,0001.16,0000.63,0000.88,0000.51,0000.02,0000.05,0000.07,-000.06,22.3,00.0,0655.3,30.9
2020-09-22T02:31:00Z,00000388,01000608,0001.05,0001.16,0000.81,0000.56,0000.37,0000.14,0000.03,-000.15,0000.02,22.3,00.0,0655.4,30.9
2020-09-22T02:32:00Z,00000388,01000608,0000.78,0001.42,0000.72,0000.50,-000.19,-000.07,0000.01,0000.20,0000.07,22.3,00.0,0655.4,30.9
2020-09-22T02:33:00Z,00000388,01000608,0001.05,0000.75,0000.40,0001.09,0000.05,-000.31,0000.10,0000.08,-000.02,22.3,00.0,0655.4,30.9
2020-09-22T02:34:00Z,00000388,01000608,0000.91,0001.58,0000.80,0000.70,0000.37,0000.06,-000.07,-000.16,0000.03,22.3,00.0,0655.4,30.9
2020-09-22T02:35:00Z,00000388,01000608,0001.67,0001.04,0000.21,0000.07,0000.46,-000.15,0000.40,0000.35,0000.21,22.3,00.0,0655.3,30.9
2020-09-22T02:36:00Z,00000388,01000608,0001.74,0001.41,0000.32,0000.13,0000.37,0000.15,0000.07,0000.21,0000.13,22.3,00.0,0655.4,30.8
2020-09-22T02:37:00Z,00000388,01000608,0000.32,0001.12,0000.68,0000.50,0000.11,0000.18,0000.41,0000.15,0000.14,22.3,00.0,0655.3,30.8
2020-09-22T02:38:00Z,00000388,01000608,0000.77,0001.33,0000.57,0000.37,0000.44,0000.22,0000.43,0000.44,0000.47,22.2,00.0,0655.3,30.8
2020-09-22T02:39:00Z,00000388,01000608,0001.82,0000.78,0000.28,0000.37,0000.62,-000.20,0000.25,0000.14,0000.02,22.2,00.0,0655.3,30.8
2020-09-22T02:40:00Z,00000388,01000608,0001.00,0001.25,0000.28,0000.09,0000.41,-000.22,0000.17,0000.10,0000.19,22.2,00.0,0655.3,30.8
2020-09-22T02:41:00Z,00000388,01000608,0000.74,0001.31,0000.35,0000.17,0000.39,-000.20,0000.21,0000.36,0000.26,22.2,00.0,0655.3,30.8
2020-09-22T02:42:00Z,00000388,01000608,0001.53,0001.02,-000.02,0000.60,0000.15,-000.15,0000.21,0000.09,0000.09,22.3,00.0,0655.3,30.8
2020-09-22T02:43:00Z,00000388,01000608,0001.27,0000.33,0000.57,0000.90,0000.18,-000.13,0000.13,0000.27,0000.07,22.3,00.0,0655.3,30.8
2020-09-22T02:44:00Z,00000388,01000608,0001.69,0000.88,0000.36,0000.60,0000.34,0000.28,0000.32,0000.04,0000.21,22.3,00.0,0655.3,30.9
2020-09-22T02:45:00Z,00000388,01000608,0003.51,0003.25,0001.68,0001.62,0000.73,0000.23,0006.20,0005.91,0004.49,22.3,00.0,0655.4,30.9
2020-09-22T02:46:00Z,00000388,01000608,0023.50,0016.99,0010.69,0004.77,0003.31,0002.58,0054.48,0050.11,0039.68,22.3,00.0,0655.4,30.9
2020-09-22T02:47:00Z,00000388,01000608,0013.56,0010.70,0006.50,0002.35,0002.22,0001.40,0038.26,0035.47,0028.43,22.3,00.0,0655.3,30.8
2020-09-22T02:48:00Z,00000388,01000608,0000.81,0001.35,0000.32,0000.61,0000.20,-000.28,0002.26,0002.20,0001.79,22.3,00.0,0655.3,30.9
2020-09-22T02:49:00Z,00000388,01000608,0000.35,0001.00,0000.02,0000.98,0000.47,0000.04,0000.49,0000.50,0000.39,22.2,00.0,0655.3,30.8
2020-09-22T02:50:00Z,00000388,01000608,0001.70,0001.44,0000.48,0000.48,0000.29,-000.40,0000.31,0000.30,0000.20,22.2,00.0,0655.3,30.8
2020-09-22T02:51:00Z,00000388,01000608,0000.87,0001.00,0000.37,0001.30,0000.88,-000.10,0000.34,0000.22,0000.26,22.2,00.0,0655.3,30.8
2020-09-22T02:52:00Z,00000388,01000608,0001.29,0000.79,0000.61,0000.31,0000.65,0000.18,0000.09,0000.09,0000.06,22.2,00.0,0655.3,30.8
2020-09-22T02:53:00Z,00000388,01000608,0001.43,0001.17,0000.39,0000.82,0000.12,0000.05,0000.33,0000.23,0000.18,22.1,00.0,0655.3,30.8
2020-09-22T02:54:00Z,00000388,01000608,-000.26,0000.56,0000.75,0000.60,0000.23,-000.19,0000.40,0000.41,0000.39,22.1,00.0,0655.4,30.8
2020-09-22T02:55:00Z,00000388,01000608,0002.77,0002.48,0001.34,0001.58,0000.60,0000.23,0004.65,0004.23,0003.26,22.1,00.0,0655.3,30.8
2020-09-22T02:56:00Z,00000388,01000608,0001.58,0001.47,0000.74,0001.17,0000.58,0000.06,0002.85,0002.72,0002.15,22.1,00.0,0655.4,30.8
2020-09-22T02:57:00Z,00000388,41000608,,,,,,,,,,22.2,00.0,0655.4,30.8
2020-09-22T02:58:00Z,00000388,61000608,,,,,,,,,,22.3,00.0,0654.4,30.8
2020-09-22T02:59:00Z,00000388,21000608,,,,,,,,,,22.4,00.0,0654.4,30.9
2020-09-22T03:00:00Z,00000388,21000608,,,,,,,,,,22.5,00.0,0654.4,30.9
2020-09-22T03:01:00Z,00000388,21000608,,,,,,,,,,22.5,00.0,0654.4,30.9
2020-09-22T03:02:00Z,00000388,21000608,,,,,,,,,,22.5,00.0,0654.4,30.9
2020-09-22T03:03:00Z,00000388,61000608,,,,,,,,,,22.5,00.0,0654.4,30.9
2020-09-22T03:04:00Z,00000388,41000608,0001.92,0000.80,0000.77,0000.65,0000.23,0000.23,0000.03,0000.19,0000.16,22.4,00.0,0655.3,30.9
2020-09-22T03:05:00Z,00000388,01000608,0001.52,0000.42,0000.69,0001.02,0000.31,-000.10,0000.21,0000.07,0000.05,22.4,00.0,0655.3,30.9
2020-09-22T03:06:00Z,00000388,01000608,0001.28,0000.78,0000.62,0000.92,0000.08,0000.22,0000.12,0000.11,0000.16,22.4,00.0,0655.3,30.9
2020-09-22T03:07:00Z,00000388,01000608,0002.46,0000.93,0000.86,0001.15,-000.31,0000.24,0000.14,0000.15,0000.15,22.3,00.0,0655.3,30.9
2020-09-22T03:08:00Z,00000388,01000608,0001.48,0000.19,0000.49,0000.12,0000.08,0000.51,0000.30,0000.37,0000.13,22.3,00.0,0655.3,30.9
2020-09-22T03:09:00Z,00000388,01000608,0002.00,0000.60,0000.93,0000.43,0000.20,0000.20,0000.12,-000.06,-000.00,22.3,00.0,0655.3,30.9
2020-09-22T03:10:00Z,00000388,01000608,0001.53,0000.85,0000.90,0000.30,-000.04,0000.10,0000.15,0000.30,0000.16,22.3,00.0,0655.3,30.9